[[{"header":{"parameterUnit":"m.s-1","parameterCategory":1,"la1":30.2991,"la2":30.254,"lo1":-89.0895,"lo2":-89.0444,"dy":0.0017,"dx":0.0017,"nx":28,"ny":28,"refTime":"2023-09-06T09:00:00:Z","depth":0,"parameterNumber":2,"parameterNumberName":"U-component_of_WINDS"},"data":[0,0,0,0,0,0,0,0,0,0,0,0,0,0,0,0,0,0,0,0,0,0,0,0,0,0,0,0,0,0,0,0,0,0,0,0,0,0,0,0,0,0,0,0,0,0,0,0,0,0,0,0,0,0,0,0,0,0,0.5305,0.5305,0,0.5317,0.5317,0.5318,0.5319,0.5319,0.5319,0.5319,0.5331,0.5332,0.5332,0,0,0,0,0,0,0,0,0,0,0,0,0,0.5281,0.5281,0.5305,0.5305,0.5305,0.5317,0.5317,0.5318,0.5319,0.5319,0.5319,0.5319,0.5331,0.5332,0.5332,0,0,0,0,0,0,0,0,0,0,0,0,0,0.5292,0.5281,0.5305,0.5308,0.5308,0.5317,0.5317,0.5318,0.532,0.5319,0.5319,0.5319,0.5331,0.5332,0.5332,0.5339,0,0,0.5334,0.5334,0,0,0,0,0,0,0,0,0.5291,0.5293,0.5307,0.5307,0.5308,0.5317,0.5313,0.5325,0.532,0.5315,0.5319,0.5319,0.5326,0.5327,0.533,0.534,0.534,0.5334,0.5335,0.5335,0.5335,0,0,0,0,0,0,0,0.5291,0.5292,0.531,0.5307,0.5308,0.5308,0.5309,0.5316,0.5322,0.5315,0.5316,0.5317,0.5327,0.533,0.533,0.5341,0.5334,0.5335,0.5335,0.5335,0.5355,0.5355,0,0,0,0,0,0,0.529,0.5292,0.5309,0.531,0.5299,0.5308,0.531,0.5314,0.5321,0.5322,0.5317,0.5317,0.5329,0.533,0.5331,0.5339,0.5335,0.5335,0.5336,0.5355,0.5355,0.5355,0,0,0,0,0,0,0.5289,0.5291,0.5309,0.5301,0.5303,0.5309,0.5313,0.5314,0.5317,0.5323,0.5324,0.5319,0.5328,0.533,0.5337,0.5339,0.5336,0.5336,0.5355,0.5355,0.5355,0.5355,0,0,0,0,0,0,0.5288,0.5291,0.5294,0.5301,0.5304,0.5315,0.5314,0.5315,0.5318,0.5318,0.5325,0.5326,0.5328,0.5336,0.5338,0.534,0.5337,0.5355,0.5355,0.5355,0.5355,0.5356,0.5356,0,0,0,0,0,0.5287,0.5294,0.5294,0.5297,0.5308,0.5315,0.5317,0.532,0.5319,0.5322,0.5325,0.5326,0.5339,0.5337,0.5338,0.5341,0.5355,0.5355,0.5355,0.5355,0.5355,0.5356,0,0,0,0,0,0,0.5288,0.5295,0.5296,0.5305,0.5309,0.5316,0.532,0.5321,0.5326,0.5325,0.5329,0.533,0.5337,0.534,0.5337,0.5348,0.5346,0.5347,0.5346,0.5346,0.5346,0.5346,0.5337,0,0,0,0,0,0.5289,0.5295,0.5301,0.5308,0.531,0.5314,0.5318,0.532,0.5325,0.5327,0.5331,0.5335,0.534,0.5343,0.5348,0.5355,0.5356,0.5358,0.5358,0.5359,0.5359,0.5362,0.5363,0.5356,0.5356,0.5356,0,0,0.5291,0.5296,0.5299,0.5308,0.5312,0.5317,0.5316,0.5322,0.5326,0.5327,0.5334,0.5337,0.5342,0.5349,0.5352,0.5351,0.5361,0.5359,0.5359,0.536,0.5362,0.5363,0.5363,0.5357,0.5357,0.5357,0,0,0.5298,0.5303,0.5308,0.5312,0.5318,0.532,0.5322,0.5328,0.5329,0.5336,0.5337,0.5341,0.535,0.5353,0.5356,0.5362,0.5362,0.5363,0.5365,0.5368,0.5368,0.5369,0.537,0.5371,0.5364,0.5364,0.5364,0,0.53,0.5309,0.5311,0.5317,0.532,0.5321,0.5327,0.533,0.5337,0.5339,0.5338,0.5348,0.5352,0.5359,0.536,0.5363,0.5364,0.5363,0.5368,0.5369,0.5369,0.537,0.5371,0.5364,0.5364,0.5364,0.5364,0,0.531,0.5316,0.532,0.5326,0.533,0.5335,0.5338,0.5341,0.5342,0.5345,0.5351,0.5355,0.536,0.5362,0.5363,0.5368,0.5368,0.5368,0.5366,0.537,0.5371,0.5371,0.5364,0.5364,0.5364,0.5364,0,0,0.5319,0.5325,0.5327,0.5329,0.5334,0.5339,0.5343,0.5348,0.5351,0.5355,0.5358,0.5365,0.5365,0.5368,0.5369,0.5371,0.5375,0.5371,0.5371,0.5371,0.538,0.538,0.538,0.5375,0.5375,0.5375,0.5379,0,0.5325,0.5334,0.5336,0.5344,0.5348,0.5349,0.5353,0.5356,0.5358,0.5362,0.5364,0.5368,0.5368,0.5369,0.5372,0.5374,0.5376,0.5374,0.5378,0.5378,0.5376,0.5381,0.5381,0.5385,0.538,0.538,0.538,0,0.5335,0.5339,0.5347,0.535,0.5352,0.5356,0.536,0.5364,0.5367,0.5368,0.5371,0.5372,0.5376,0.5374,0.5379,0.5377,0.5379,0.538,0.538,0.5381,0.5379,0.5381,0.5386,0.5387,0.5381,0.5381,0.5381,0,0.5339,0.5346,0.5352,0.5354,0.5358,0.5361,0.5363,0.5366,0.5368,0.5372,0.5373,0.5377,0.5379,0.5381,0.5383,0.5381,0.5387,0.5386,0.5388,0.5388,0.5389,0.5389,0.5394,0.5391,0.5391,0.5391,0.5391,0,0.5346,0.5351,0.5353,0.5357,0.5361,0.5363,0.5368,0.5369,0.5372,0.5375,0.5376,0.5378,0.538,0.5383,0.5384,0.5388,0.5389,0.539,0.539,0.5389,0.5389,0.5391,0.539,0.5391,0.5391,0.5391,0.5391,0,0.5352,0.5354,0.5359,0.5363,0.5364,0.5367,0.537,0.5372,0.5374,0.5378,0.5379,0.5381,0.5384,0.5386,0.539,0.5391,0.5394,0.5395,0.5393,0.5393,0.5395,0.5395,0.5401,0.5401,0.5398,0.5398,0.5398,0,0.5356,0.536,0.5363,0.5365,0.5367,0.537,0.5373,0.5374,0.5376,0.5379,0.5382,0.5385,0.5387,0.5392,0.5394,0.5397,0.5397,0.5399,0.5397,0.5397,0.5396,0.5396,0.5396,0.5399,0.5399,0.5399,0.5399,0,0.5363,0.5364,0.5367,0.537,0.5373,0.5375,0.5378,0.5379,0.5381,0.5383,0.5386,0.5388,0.5392,0.5395,0.5398,0.5399,0.5399,0.54,0.54,0.54,0.5399,0.5399,0.5394,0.54,0.5399,0.5399,0.5399,0.5399,0.5368,0.5371,0.5373,0.5376,0.5378,0.538,0.5383,0.5384,0.5387,0.539,0.539,0.5393,0.5395,0.5399,0.54,0.5403,0.5402,0.5403,0.5403,0.5403,0.5403,0.5398,0.5403,0.5403,0.5403,0.5403,0.5403,0,0.5375,0.5376,0.5379,0.5382,0.5384,0.5384,0.5386,0.5388,0.5391,0.5393,0.5395,0.5398,0.5401,0.5402,0.5404,0.5406,0.5406,0.5406,0.5406,0.5406,0.5404,0.5403,0.5406,0.5406,0.5406,0.5406,0.5406,0.5406,0.5378,0.5382,0.5383,0.5387,0.5388,0.5391,0.5393,0.5394,0.5396,0.5399,0.5401,0.5402,0.5403,0.5406,0.5408,0.5408,0.5409,0.5409,0.5409,0.5407,0.5407,0.5406,0.5405,0.5409,0.5409,0.5412,0.5412,0.5412]},{"header":{"parameterUnit":"m.s-1","parameterCategory":1,"la1":30.2991,"la2":30.254,"lo1":-89.0895,"lo2":-89.0444,"dy":0.0017,"dx":0.0017,"nx":28,"ny":28,"refTime":"2023-09-06T09:00:00:Z","depth":0,"parameterNumber":3,"parameterNumberName":"V-component_of_WINDS"},"data":[0,0,0,0,0,0,0,0,0,0,0,0,0,0,0,0,0,0,0,0,0,0,0,0,0,0,0,0,0,0,0,0,0,0,0,0,0,0,0,0,0,0,0,0,0,0,0,0,0,0,0,0,0,0,0,0,0,0,4.1273,4.1273,0,4.1302,4.1303,4.1303,4.1242,4.124,4.1238,4.1237,4.1264,4.1266,4.1269,0,0,0,0,0,0,0,0,0,0,0,0,0,4.116,4.1163,4.1273,4.1273,4.1274,4.1302,4.1303,4.1303,4.1243,4.124,4.1238,4.1236,4.1263,4.1266,4.1269,0,0,0,0,0,0,0,0,0,0,0,0,0,4.1201,4.1164,4.1273,4.1247,4.1245,4.1302,4.1303,4.1303,4.1243,4.124,4.1237,4.1235,4.1262,4.1266,4.127,4.1352,0,0,4.1281,4.1283,0,0,0,0,0,0,0,0,4.1199,4.1206,4.1251,4.1249,4.1247,4.1266,4.1273,4.132,4.1244,4.1244,4.1237,4.1233,4.1267,4.127,4.1282,4.1354,4.1355,4.1282,4.1284,4.1286,4.1287,0,0,0,0,0,0,0,4.1196,4.1204,4.1284,4.1251,4.1249,4.1233,4.1235,4.1282,4.1271,4.1244,4.1239,4.1244,4.1265,4.1278,4.1282,4.1355,4.1282,4.1285,4.1287,4.1289,4.1494,4.1497,0,0,0,0,0,0,4.1197,4.1202,4.1283,4.1285,4.1215,4.1237,4.124,4.1263,4.1271,4.1269,4.1246,4.1241,4.1273,4.1278,4.1283,4.1378,4.1286,4.1289,4.1291,4.1491,4.1494,4.1498,0,0,0,0,0,0,4.1195,4.1205,4.1282,4.1243,4.1251,4.1242,4.1268,4.1265,4.1278,4.1273,4.127,4.1262,4.1271,4.1277,4.1335,4.1378,4.1291,4.1294,4.1487,4.1492,4.1496,4.1571,0,0,0,0,0,0,4.1192,4.1205,4.1237,4.1244,4.1254,4.1336,4.1271,4.1267,4.1285,4.1278,4.1287,4.1285,4.1269,4.133,4.1339,4.1382,4.1297,4.1483,4.1489,4.1495,4.1565,4.1578,4.1589,0,0,0,0,0,4.1188,4.1257,4.1239,4.1249,4.1294,4.1338,4.1344,4.1325,4.1289,4.132,4.1317,4.1285,4.1373,4.1336,4.1346,4.1391,4.148,4.1487,4.1494,4.1559,4.1575,4.1589,0,0,0,0,0,0,4.1255,4.1258,4.1238,4.1311,4.1325,4.1328,4.1367,4.1343,4.1366,4.1359,4.1333,4.1336,4.1398,4.14,4.136,4.147,4.142,4.1429,4.1466,4.1481,4.1493,4.1491,4.1301,0,0,0,0,0,4.1279,4.1316,4.1315,4.138,4.1388,4.1377,4.1395,4.1379,4.1392,4.1398,4.1398,4.1411,4.1441,4.1462,4.1489,4.1565,4.1565,4.1601,4.1613,4.1623,4.1631,4.1669,4.1685,4.1521,4.1521,4.1521,0,0,4.1327,4.1333,4.1358,4.1393,4.1402,4.1439,4.1382,4.1424,4.1451,4.1404,4.1458,4.1459,4.1472,4.1538,4.1568,4.1542,4.1676,4.1632,4.164,4.1643,4.1678,4.1694,4.1707,4.1526,4.1525,4.1524,0,0,4.1434,4.1443,4.1497,4.1507,4.1521,4.1513,4.1526,4.1533,4.1532,4.1586,4.1551,4.1582,4.1635,4.1645,4.1657,4.1766,4.1737,4.1776,4.1839,4.1876,4.1889,4.19,4.1937,4.1951,4.1784,4.1784,4.1784,0,4.1492,4.1547,4.1527,4.1571,4.1587,4.1547,4.16,4.161,4.1633,4.1644,4.1616,4.168,4.1686,4.1753,4.178,4.1792,4.1804,4.1774,4.1889,4.19,4.191,4.1945,4.196,4.1789,4.1788,4.1788,4.1787,0,4.1617,4.1656,4.1697,4.172,4.1741,4.1789,4.1775,4.1798,4.178,4.1774,4.1829,4.1835,4.1862,4.1877,4.186,4.1942,4.1925,4.1894,4.1842,4.1931,4.1963,4.1977,4.1795,4.1794,4.1792,4.1791,0,0,4.1766,4.1777,4.1792,4.1801,4.1814,4.1843,4.1889,4.1916,4.1935,4.1952,4.1988,4.2034,4.2004,4.2018,4.2002,4.2035,4.2118,4.1999,4.1999,4.2019,4.2206,4.2229,4.2245,4.21,4.2102,4.2104,4.2204,0,4.187,4.195,4.1932,4.201,4.2044,4.2006,4.2046,4.2057,4.2053,4.2081,4.2076,4.2107,4.2067,4.2075,4.2106,4.2102,4.2155,4.2095,4.2132,4.2133,4.2128,4.2262,4.2286,4.238,4.2217,4.2219,4.2221,0,4.2002,4.2024,4.2106,4.2111,4.2124,4.2161,4.2183,4.2211,4.2222,4.2216,4.2231,4.2208,4.2252,4.2201,4.226,4.2219,4.2233,4.2233,4.2236,4.2238,4.2181,4.2265,4.241,4.2423,4.2241,4.2239,4.2238,0,4.2101,4.215,4.2205,4.2214,4.2222,4.2248,4.2252,4.2261,4.2278,4.2297,4.2307,4.2332,4.2345,4.2363,4.2347,4.2312,4.2407,4.2356,4.2403,4.2403,4.2423,4.2422,4.257,4.2436,4.2435,4.2435,4.2435,0,4.2218,4.2268,4.2249,4.2282,4.2337,4.2316,4.237,4.237,4.2378,4.2409,4.2378,4.2408,4.2385,4.2413,4.24,4.245,4.2456,4.2452,4.2447,4.2454,4.2454,4.2461,4.2454,4.2439,4.2438,4.2437,4.2437,0,4.2336,4.2325,4.2382,4.2385,4.2386,4.2427,4.2428,4.2458,4.2452,4.2492,4.25,4.249,4.2521,4.2506,4.2539,4.253,4.2593,4.2581,4.2589,4.2586,4.2632,4.2627,4.2789,4.2809,4.2663,4.2665,4.2666,0,4.2411,4.2449,4.2456,4.2475,4.2481,4.2513,4.2529,4.251,4.2528,4.2543,4.2571,4.2599,4.2621,4.2672,4.2666,4.269,4.2677,4.2732,4.268,4.2685,4.2676,4.2673,4.2676,4.2742,4.2744,4.2745,4.2746,0,4.2544,4.2536,4.2562,4.2586,4.2607,4.2625,4.264,4.2657,4.2637,4.266,4.2691,4.2708,4.274,4.2768,4.2789,4.2792,4.2766,4.2763,4.2775,4.278,4.2783,4.278,4.2616,4.2759,4.2758,4.2757,4.2756,4.2756,4.2641,4.2672,4.2681,4.2711,4.272,4.2734,4.2762,4.2759,4.2785,4.281,4.2797,4.2833,4.2841,4.2867,4.2873,4.29,4.2878,4.2896,4.29,4.2904,4.2909,4.278,4.2904,4.2904,4.2904,4.2903,4.2903,0,4.277,4.2774,4.2802,4.2823,4.2846,4.282,4.2835,4.2855,4.2888,4.2898,4.292,4.2955,4.2981,4.2978,4.3002,4.3024,4.3012,4.3031,4.3028,4.3029,4.2929,4.2915,4.304,4.304,4.304,4.3039,4.3039,4.3039,4.284,4.2891,4.2884,4.2939,4.2942,4.2977,4.2987,4.3,4.3008,4.3049,4.3071,4.3068,4.3073,4.3097,4.3119,4.3117,4.3127,4.315,4.3143,4.3049,4.3036,4.3023,4.301,4.3152,4.3152,4.324,4.3241,4.3242]}]]